Starlink 11668

operational
NORAD ID: 63557 Int'l Des: 2025-075 Owner: SPXS Country: US Constellation: starlink
LEOCIRCULAR

About Starlink 11668

Description loading...

Live Position

Loading 3D Globe...

Upcoming Passes

Altitude History

Altitude vs Time

uPlot chart will show altitude changes over time

Two-Line Element Set

1 63557U 25075K 25257.36429168 .00268117 00000-0 20215-2 0 9992
2 63557 42.9997 136.9504 0001288 30.3890 329.7052 15.70896890 25512
Epoch: Sep 14, 2025 • Age: 26 hours

Current Status

Altitude 353.6 km
Velocity 7.70 km/s
Sub-Earth Point 1.33°N, 23.11°W
Launch Date Apr 13, 2025
Age 0.4 years
Type internet

Technical Details

Classification Payload
Mass 960.00 kg
Dry Mass 910.00 kg
Total Mass 960.00 kg
Length 0.30 m
Diameter 4.10 m
Span 29.00 m
Shape Box + pan
Manufacturer SPXS
Bus Type Starlink V2MD
Phase Status In Orbit
Owner/State SPXS/US

Large Constellations

Loading constellations...